Time,TemperatureF,DewpointF,PressureIn,WindDirection,WindDirectionDegrees,WindSpeedMPH,WindSpeedGustMPH,Humidity,HourlyPrecipIn,Conditions,Clouds,dailyrainin,SoftwareType,DateUTC
2013-07-13 00:01:00,61.0,59.0,30.07,North,355,0.0,0.0,94,0.00,,,0.00,,2013-07-13 05:01:00,
2013-07-13 00:11:00,61.0,59.0,30.08,North,355,0.0,0.0,94,0.00,,,0.00,,2013-07-13 05:11:00,
2013-07-13 00:22:00,61.0,59.0,30.08,North,355,0.0,0.0,94,0.00,,,0.00,,2013-07-13 05:22:00,
2013-07-13 00:32:00,61.0,60.0,30.07,North,355,0.0,0.0,95,0.00,,,0.00,,2013-07-13 05:32:00,
2013-07-13 00:42:00,61.0,60.0,30.07,North,355,0.0,0.0,95,0.00,,,0.00,,2013-07-13 05:42:00,
2013-07-13 00:52:00,61.0,60.0,30.07,North,355,0.0,0.0,95,0.00,,,0.00,,2013-07-13 05:52:00,
2013-07-13 01:02:00,60.0,59.0,30.07,North,355,0.0,0.0,95,0.00,,,0.00,,2013-07-13 06:02:00,
2013-07-13 01:11:00,60.0,59.0,30.07,North,355,0.0,0.0,95,0.00,,,0.00,,2013-07-13 06:11:00,
2013-07-13 01:22:00,60.0,59.0,30.07,North,355,0.0,0.0,95,0.00,,,0.00,,2013-07-13 06:22:00,
2013-07-13 01:32:00,60.0,59.0,30.07,North,355,0.0,0.0,95,0.00,,,0.00,,2013-07-13 06:32:00,
2013-07-13 01:43:00,59.0,58.0,30.07,North,355,0.0,0.0,96,0.00,,,0.00,,2013-07-13 06:43:00,
2013-07-13 01:52:00,59.0,58.0,30.07,North,355,0.0,0.0,96,0.00,,,0.00,,2013-07-13 06:52:00,
2013-07-13 02:02:00,60.0,59.0,30.07,North,355,0.0,0.0,96,0.00,,,0.00,,2013-07-13 07:02:00,
2013-07-13 02:11:00,59.0,58.0,30.07,North,355,0.0,0.0,95,0.00,,,0.00,,2013-07-13 07:11:00,
2013-07-13 02:22:00,59.0,58.0,30.07,North,355,0.0,0.0,95,0.00,,,0.00,,2013-07-13 07:22:00,
2013-07-13 02:33:00,59.0,58.0,30.07,North,355,0.0,0.0,95,0.00,,,0.00,,2013-07-13 07:33:00,
2013-07-13 02:44:00,58.0,57.0,30.08,North,355,0.0,0.0,95,0.00,,,0.00,,2013-07-13 07:44:00,
2013-07-13 02:53:00,58.0,57.0,30.08,North,355,0.0,0.0,95,0.00,,,0.00,,2013-07-13 07:53:00,
2013-07-13 03:02:00,58.0,57.0,30.09,North,355,0.0,0.0,95,0.00,,,0.00,,2013-07-13 08:02:00,
2013-07-13 03:22:00,58.0,57.0,30.09,North,355,0.0,0.0,96,0.00,,,0.00,,2013-07-13 08:22:00,
2013-07-13 03:33:00,58.0,57.0,30.10,North,355,0.0,0.0,96,0.00,,,0.00,,2013-07-13 08:33:00,
2013-07-13 03:43:00,58.0,57.0,30.10,North,355,0.0,0.0,96,0.00,,,0.00,,2013-07-13 08:43:00,
2013-07-13 03:52:00,58.0,57.0,30.10,North,355,0.0,0.0,96,0.00,,,0.00,,2013-07-13 08:52:00,
2013-07-13 04:02:00,58.0,57.0,30.09,North,355,0.0,0.0,96,0.00,,,0.00,,2013-07-13 09:02:00,
2013-07-13 04:22:00,57.0,56.0,30.09,North,355,0.0,0.0,96,0.00,,,0.00,,2013-07-13 09:22:00,
2013-07-13 04:33:00,57.0,56.0,30.09,North,355,0.0,0.0,96,0.00,,,0.00,,2013-07-13 09:33:00,
2013-07-13 04:43:00,57.0,56.0,30.09,North,355,0.0,0.0,96,0.00,,,0.00,,2013-07-13 09:43:00,
2013-07-13 04:53:00,57.0,56.0,30.09,North,355,0.0,0.0,96,0.00,,,0.00,,2013-07-13 09:53:00,
2013-07-13 05:01:00,57.0,56.0,30.09,North,355,0.0,0.0,96,0.00,,,0.00,,2013-07-13 10:01:00,
2013-07-13 05:11:00,57.0,56.0,30.09,North,355,0.0,0.0,96,0.00,,,0.00,,2013-07-13 10:11:00,
2013-07-13 05:22:00,57.0,56.0,30.09,North,355,0.0,0.0,96,0.00,,,0.00,,2013-07-13 10:22:00,
2013-07-13 05:32:00,57.0,56.0,30.09,North,355,0.0,0.0,96,0.00,,,0.00,,2013-07-13 10:32:00,
2013-07-13 05:43:00,56.0,55.0,30.09,North,355,0.0,0.0,97,0.00,,,0.00,,2013-07-13 10:43:00,
2013-07-13 05:52:00,56.0,55.0,30.09,North,355,0.0,0.0,97,0.00,,,0.00,,2013-07-13 10:52:00,
2013-07-13 06:02:00,56.0,55.0,30.09,North,355,0.0,0.0,96,0.00,,,0.00,,2013-07-13 11:02:00,
2013-07-13 06:11:00,56.0,55.0,30.09,North,355,0.0,0.0,96,0.00,,,0.00,,2013-07-13 11:11:00,
2013-07-13 06:22:00,56.0,55.0,30.09,North,355,0.0,0.0,96,0.00,,,0.00,,2013-07-13 11:22:00,
2013-07-13 06:32:00,57.0,56.0,30.09,North,355,0.0,0.0,97,0.00,,,0.00,,2013-07-13 11:32:00,
2013-07-13 06:42:00,58.0,57.0,30.09,North,355,0.0,0.0,98,0.00,,,0.00,,2013-07-13 11:42:00,
2013-07-13 06:52:00,58.0,57.0,30.09,North,355,0.0,0.0,98,0.00,,,0.00,,2013-07-13 11:52:00,
2013-07-13 07:02:00,60.0,59.0,30.09,North,355,0.0,0.0,98,0.00,,,0.00,,2013-07-13 12:02:00,
2013-07-13 07:12:00,62.0,61.0,30.10,North,355,0.0,0.0,98,0.00,,,0.00,,2013-07-13 12:12:00,
2013-07-13 07:22:00,62.0,61.0,30.10,North,355,0.0,0.0,98,0.00,,,0.00,,2013-07-13 12:22:00,
2013-07-13 07:32:00,64.0,63.0,30.11,North,355,0.0,0.0,96,0.00,,,0.00,,2013-07-13 12:32:00,
2013-07-13 07:43:00,66.0,64.0,30.11,ESE,102,0.0,1.0,92,0.00,,,0.00,,2013-07-13 12:43:00,
2013-07-13 07:52:00,66.0,64.0,30.11,ESE,102,0.0,1.0,92,0.00,,,0.00,,2013-07-13 12:52:00,
2013-07-13 08:01:00,69.0,65.0,30.11,East,88,0.0,1.0,86,0.00,,,0.00,,2013-07-13 13:01:00,
2013-07-13 08:12:00,70.0,64.0,30.11,ENE,78,0.0,3.0,82,0.00,,,0.00,,2013-07-13 13:12:00,
2013-07-13 08:22:00,70.0,64.0,30.11,ENE,78,0.0,3.0,82,0.00,,,0.00,,2013-07-13 13:22:00,
2013-07-13 08:32:00,70.0,65.0,30.12,NE,34,0.0,1.0,83,0.00,,,0.00,,2013-07-13 13:32:00,
2013-07-13 08:43:00,72.0,66.0,30.12,ENE,57,0.0,2.0,81,0.00,,,0.00,,2013-07-13 13:43:00,
2013-07-13 08:53:00,72.0,66.0,30.12,ENE,57,0.0,2.0,81,0.00,,,0.00,,2013-07-13 13:53:00,
2013-07-13 09:02:00,72.0,65.0,30.11,East,86,0.0,4.0,79,0.00,,,0.00,,2013-07-13 14:02:00,
2013-07-13 09:11:00,73.0,66.0,30.11,ESE,105,1.0,3.0,79,0.00,,,0.00,,2013-07-13 14:11:00,
2013-07-13 09:22:00,73.0,66.0,30.11,ESE,105,1.0,3.0,79,0.00,,,0.00,,2013-07-13 14:22:00,
2013-07-13 09:32:00,74.0,66.0,30.12,ENE,63,0.0,2.0,75,0.00,,,0.00,,2013-07-13 14:32:00,
2013-07-13 09:43:00,75.0,67.0,30.11,NE,49,0.0,2.0,75,0.00,,,0.00,,2013-07-13 14:43:00,
2013-07-13 09:53:00,75.0,67.0,30.11,NE,49,0.0,2.0,75,0.00,,,0.00,,2013-07-13 14:53:00,
2013-07-13 10:02:00,76.0,66.0,30.11,ENE,71,1.0,3.0,71,0.00,,,0.00,,2013-07-13 15:02:00,
2013-07-13 10:12:00,77.0,67.0,30.11,NE,51,0.0,3.0,72,0.00,,,0.00,,2013-07-13 15:12:00,
2013-07-13 10:22:00,77.0,67.0,30.11,NE,51,0.0,3.0,72,0.00,,,0.00,,2013-07-13 15:22:00,
2013-07-13 10:33:00,77.0,64.0,30.11,ENE,77,1.0,6.0,65,0.00,,,0.00,,2013-07-13 15:33:00,
2013-07-13 10:43:00,77.0,66.0,30.11,ENE,67,1.0,7.0,69,0.00,,,0.00,,2013-07-13 15:43:00,
2013-07-13 10:53:00,77.0,66.0,30.11,ENE,67,1.0,7.0,69,0.00,,,0.00,,2013-07-13 15:53:00,
2013-07-13 11:02:00,77.0,65.0,30.11,ENE,61,1.0,4.0,66,0.00,,,0.00,,2013-07-13 16:02:00,
2013-07-13 11:11:00,77.0,65.0,30.11,NE,37,1.0,6.0,67,0.00,,,0.00,,2013-07-13 16:11:00,
2013-07-13 11:22:00,77.0,65.0,30.11,NE,37,1.0,6.0,67,0.00,,,0.00,,2013-07-13 16:22:00,
2013-07-13 11:33:00,78.0,65.0,30.10,NE,51,1.0,5.0,65,0.00,,,0.00,,2013-07-13 16:33:00,
2013-07-13 11:43:00,78.0,65.0,30.10,East,84,0.0,4.0,65,0.00,,,0.00,,2013-07-13 16:43:00,
2013-07-13 11:53:00,78.0,65.0,30.10,East,84,0.0,4.0,65,0.00,,,0.00,,2013-07-13 16:53:00,
2013-07-13 12:01:00,79.0,67.0,30.10,ENE,72,1.0,5.0,66,0.00,,,0.00,,2013-07-13 17:01:00,
2013-07-13 12:12:00,78.0,66.0,30.11,North,9,0.0,4.0,66,0.00,,,0.00,,2013-07-13 17:12:00,
2013-07-13 12:22:00,78.0,66.0,30.11,North,9,0.0,4.0,66,0.00,,,0.00,,2013-07-13 17:22:00,
2013-07-13 12:33:00,79.0,68.0,30.10,ENE,63,0.0,4.0,69,0.00,,,0.00,,2013-07-13 17:33:00,
2013-07-13 12:43:00,79.0,65.0,30.10,ESE,117,1.0,5.0,62,0.00,,,0.00,,2013-07-13 17:43:00,
2013-07-13 12:52:00,79.0,65.0,30.10,ESE,117,1.0,5.0,62,0.00,,,0.00,,2013-07-13 17:52:00,
2013-07-13 13:01:00,80.0,66.0,30.10,ESE,108,1.0,7.0,62,0.00,,,0.00,,2013-07-13 18:01:00,
2013-07-13 13:22:00,79.0,66.0,30.10,ESE,113,2.0,5.0,64,0.00,,,0.00,,2013-07-13 18:22:00,
2013-07-13 13:32:00,79.0,67.0,30.09,SE,124,1.0,6.0,66,0.00,,,0.00,,2013-07-13 18:32:00,
2013-07-13 13:44:00,79.0,67.0,30.09,SE,144,2.0,6.0,66,0.00,,,0.00,,2013-07-13 18:44:00,
2013-07-13 13:53:00,79.0,67.0,30.09,SE,144,2.0,6.0,66,0.00,,,0.00,,2013-07-13 18:53:00,
2013-07-13 14:02:00,79.0,67.0,30.09,NE,53,1.0,5.0,66,0.00,,,0.00,,2013-07-13 19:02:00,
2013-07-13 14:11:00,79.0,66.0,30.09,ESE,108,1.0,4.0,64,0.00,,,0.00,,2013-07-13 19:11:00,
2013-07-13 14:22:00,79.0,66.0,30.09,ESE,108,1.0,4.0,64,0.00,,,0.00,,2013-07-13 19:22:00,
2013-07-13 14:32:00,80.0,67.0,30.08,ESE,117,1.0,6.0,65,0.00,,,0.00,,2013-07-13 19:32:00,
2013-07-13 14:44:00,80.0,66.0,30.08,ENE,57,2.0,7.0,63,0.00,,,0.00,,2013-07-13 19:44:00,
2013-07-13 14:52:00,80.0,66.0,30.08,ENE,57,2.0,7.0,63,0.00,,,0.00,,2013-07-13 19:52:00,
2013-07-13 15:01:00,80.0,67.0,30.08,ENE,57,2.0,8.0,64,0.00,,,0.00,,2013-07-13 20:01:00,
2013-07-13 15:11:00,80.0,66.0,30.08,South,171,2.0,5.0,63,0.00,,,0.00,,2013-07-13 20:11:00,
2013-07-13 15:22:00,80.0,66.0,30.08,South,171,2.0,5.0,63,0.00,,,0.00,,2013-07-13 20:22:00,
2013-07-13 15:33:00,80.0,65.0,30.08,ENE,60,1.0,5.0,61,0.00,,,0.00,,2013-07-13 20:33:00,
2013-07-13 15:43:00,81.0,68.0,30.08,NE,51,1.0,4.0,64,0.00,,,0.00,,2013-07-13 20:43:00,
2013-07-13 15:52:00,81.0,68.0,30.08,NE,51,1.0,4.0,64,0.00,,,0.00,,2013-07-13 20:52:00,
2013-07-13 16:02:00,82.0,68.0,30.07,East,101,0.0,3.0,62,0.00,,,0.00,,2013-07-13 21:02:00,
2013-07-13 16:12:00,82.0,68.0,30.07,East,81,0.0,6.0,62,0.00,,,0.00,,2013-07-13 21:12:00,
2013-07-13 16:22:00,82.0,68.0,30.07,East,81,0.0,6.0,62,0.00,,,0.00,,2013-07-13 21:22:00,
2013-07-13 16:32:00,81.0,66.0,30.07,SE,141,1.0,7.0,60,0.00,,,0.00,,2013-07-13 21:32:00,
2013-07-13 16:42:00,81.0,67.0,30.06,ESE,113,0.0,5.0,63,0.00,,,0.00,,2013-07-13 21:42:00,
2013-07-13 16:53:00,81.0,67.0,30.06,ESE,113,0.0,5.0,63,0.00,,,0.00,,2013-07-13 21:53:00,
2013-07-13 17:01:00,82.0,69.0,30.06,NE,37,1.0,5.0,64,0.00,,,0.00,,2013-07-13 22:01:00,
2013-07-13 17:12:00,80.0,67.0,30.06,NNE,17,0.0,7.0,64,0.00,,,0.00,,2013-07-13 22:12:00,
2013-07-13 17:22:00,80.0,67.0,30.06,NNE,17,0.0,7.0,64,0.00,,,0.00,,2013-07-13 22:22:00,
2013-07-13 17:32:00,81.0,68.0,30.06,NE,42,0.0,4.0,64,0.00,,,0.00,,2013-07-13 22:32:00,
2013-07-13 17:43:00,81.0,67.0,30.06,ENE,66,1.0,6.0,62,0.00,,,0.00,,2013-07-13 22:43:00,
2013-07-13 17:53:00,81.0,67.0,30.06,ENE,66,1.0,6.0,62,0.00,,,0.00,,2013-07-13 22:53:00,
2013-07-13 18:01:00,81.0,68.0,30.06,ENE,67,1.0,4.0,64,0.00,,,0.00,,2013-07-13 23:01:00,
2013-07-13 18:11:00,81.0,66.0,30.06,ENE,61,2.0,5.0,61,0.00,,,0.00,,2013-07-13 23:11:00,
2013-07-13 18:22:00,81.0,66.0,30.06,ENE,61,2.0,5.0,61,0.00,,,0.00,,2013-07-13 23:22:00,
2013-07-13 18:32:00,81.0,67.0,30.06,ENE,75,0.0,6.0,63,0.00,,,0.00,,2013-07-13 23:32:00,
2013-07-13 18:42:00,81.0,67.0,30.05,NE,46,1.0,4.0,63,0.00,,,0.00,,2013-07-13 23:42:00,
2013-07-13 18:53:00,81.0,67.0,30.05,NE,46,1.0,4.0,63,0.00,,,0.00,,2013-07-13 23:53:00,
2013-07-13 19:01:00,80.0,68.0,30.05,ENE,65,0.0,4.0,66,0.00,,,0.00,,2013-07-14 00:01:00,
2013-07-13 19:12:00,80.0,68.0,30.06,NE,51,0.0,3.0,67,0.00,,,0.00,,2013-07-14 00:12:00,
2013-07-13 19:21:00,80.0,68.0,30.06,NE,51,0.0,3.0,67,0.00,,,0.00,,2013-07-14 00:21:00,
2013-07-13 19:33:00,80.0,68.0,30.06,NE,44,0.0,3.0,67,0.00,,,0.00,,2013-07-14 00:33:00,
2013-07-13 19:42:00,78.0,67.0,30.06,East,80,0.0,3.0,69,0.00,,,0.00,,2013-07-14 00:42:00,
2013-07-13 19:53:00,78.0,67.0,30.06,East,80,0.0,3.0,69,0.00,,,0.00,,2013-07-14 00:53:00,
2013-07-13 20:02:00,76.0,66.0,30.06,East,97,0.0,3.0,71,0.00,,,0.00,,2013-07-14 01:02:00,
2013-07-13 20:11:00,75.0,67.0,30.06,ESE,106,0.0,2.0,75,0.00,,,0.00,,2013-07-14 01:11:00,
2013-07-13 20:22:00,75.0,67.0,30.06,ESE,106,0.0,2.0,75,0.00,,,0.00,,2013-07-14 01:22:00,
2013-07-13 20:32:00,74.0,67.0,30.06,NE,41,0.0,2.0,78,0.00,,,0.00,,2013-07-14 01:32:00,
2013-07-13 20:43:00,73.0,66.0,30.06,NE,52,0.0,1.0,80,0.00,,,0.00,,2013-07-14 01:43:00,
2013-07-13 20:52:00,73.0,66.0,30.06,NE,52,0.0,1.0,80,0.00,,,0.00,,2013-07-14 01:52:00,
2013-07-13 21:02:00,71.0,65.0,30.07,ENE,58,0.0,2.0,81,0.00,,,0.00,,2013-07-14 02:02:00,
2013-07-13 21:11:00,71.0,65.0,30.08,NE,40,0.0,3.0,82,0.00,,,0.00,,2013-07-14 02:11:00,
2013-07-13 21:22:00,71.0,65.0,30.08,NE,40,0.0,3.0,82,0.00,,,0.00,,2013-07-14 02:22:00,
2013-07-13 21:32:00,70.0,65.0,30.08,NE,49,0.0,3.0,84,0.00,,,0.00,,2013-07-14 02:32:00,
2013-07-13 21:43:00,70.0,65.0,30.09,NE,49,0.0,2.0,84,0.00,,,0.00,,2013-07-14 02:43:00,
2013-07-13 21:53:00,70.0,65.0,30.09,NE,49,0.0,2.0,84,0.00,,,0.00,,2013-07-14 02:53:00,
2013-07-13 22:01:00,69.0,64.0,30.09,NE,50,0.0,1.0,84,0.00,,,0.00,,2013-07-14 03:01:00,
2013-07-13 22:11:00,69.0,64.0,30.09,NE,51,0.0,1.0,85,0.00,,,0.00,,2013-07-14 03:11:00,
2013-07-13 22:22:00,69.0,64.0,30.09,NE,51,0.0,1.0,85,0.00,,,0.00,,2013-07-14 03:22:00,
2013-07-13 22:32:00,69.0,65.0,30.09,NE,52,0.0,1.0,86,0.00,,,0.00,,2013-07-14 03:32:00,
2013-07-13 22:43:00,68.0,64.0,30.09,NE,52,0.0,1.0,88,0.00,,,0.00,,2013-07-14 03:43:00,
2013-07-13 22:53:00,68.0,64.0,30.09,NE,52,0.0,1.0,88,0.00,,,0.00,,2013-07-14 03:53:00,
2013-07-13 23:02:00,68.0,65.0,30.09,NE,52,0.0,1.0,89,0.00,,,0.00,,2013-07-14 04:02:00,
2013-07-13 23:11:00,68.0,65.0,30.09,NE,51,0.0,1.0,89,0.00,,,0.00,,2013-07-14 04:11:00,
2013-07-13 23:22:00,68.0,65.0,30.09,NE,51,0.0,1.0,89,0.00,,,0.00,,2013-07-14 04:22:00,
2013-07-13 23:32:00,67.0,64.0,30.09,NE,51,0.0,1.0,89,0.00,,,0.00,,2013-07-14 04:32:00,
2013-07-13 23:42:00,67.0,64.0,30.09,NE,51,0.0,0.0,90,0.00,,,0.00,,2013-07-14 04:42:00,
2013-07-13 23:53:00,67.0,64.0,30.09,NE,51,0.0,0.0,90,0.00,,,0.00,,2013-07-14 04:53:00,